• Processing (Info)

  • MPEC 2010-U25 : 2010 TX168

    The following Minor Planet Electronic Circular may be linked-to from your own Web pages, but must not otherwise be redistributed electronically.

    A form allowing access to any MPEC is at the bottom of this page.


    Read MPEC 2010-U24 Read MPEC 2010-U26


    M.P.E.C. 2010-U25                                Issued 2010 Oct. 20, 15:15 UT
    
         The Minor Planet Electronic Circulars contain information on unusual
             minor planets and routine data on comets.  They are published
       on behalf of Commission 20 of the International Astronomical Union by the
              Minor Planet Center, Smithsonian Astrophysical Observatory,
                              Cambridge, MA 02138, U.S.A.
    
                 Prepared using the Tamkin Foundation Computer Network
    
                                  MPC@CFA.HARVARD.EDU
           URL https://www.minorplanetcenter.org/iau/mpc.html  ISSN 1523-6714
    
                                      2010 TX168
    
    Observations:
         K10TG8X* C2010 10 11.36795 03 04 20.49 +01 24 47.6          19.0 V EU025703
         K10TG8X  C2010 10 11.38177 03 04 19.16 +01 25 09.6          19.2 V EU025703
         K10TG8X  C2010 10 11.38875 03 04 18.48 +01 25 21.1          19.3 V EU025703
         K10TG8X  C2010 10 18.92429 02 47 00.12 +05 55 22.9          17.4 V EU025J75
         K10TG8X  C2010 10 18.93736 02 46 57.53 +05 56 00.9          18.3 V EU025J75
         K10TG8X  C2010 10 18.95043 02 46 54.89 +05 56 36.9          17.1 V EU025J75
         K10TG8X  C2010 10 19.02897 02 46 39.03 +06 00 21.1          18.2 V EU025J75
         K10TG8X  C2010 10 19.03314 02 46 38.19 +06 00 32.8          18.1 V EU025J75
         K10TG8X  C2010 10 19.03732 02 46 37.32 +06 00 44.8          18.1 V EU025J75
         K10TG8X  C2010 10 19.19947 02 46 06.48 +06 08 27.9          18.2 V EU025H26
         K10TG8X  C2010 10 19.20123 02 46 06.07 +06 08 32.9          17.9 V EU025H26
         K10TG8X  C2010 10 19.20300 02 46 05.75 +06 08 37.8          18.0 V EU025H26
         K10TG8X  C2010 10 19.20473 02 46 05.42 +06 08 42.5          18.4 R EU025H26
         K10TG8X  C2010 10 19.20652 02 46 05.04 +06 08 47.5          18.4 R EU025H26
         K10TG8X  C2010 10 19.20829 02 46 04.68 +06 08 52.5          18.4 R EU025H26
         K10TG8X KC2010 10 19.26158 02 45 54.29 +06 11 31.0                 EU025H10
         K10TG8X KC2010 10 19.27039 02 45 52.49 +06 11 56.5                 EU025H10
         K10TG8X KC2010 10 19.28096 02 45 50.31 +06 12 26.6          17.7 R EU025H10
         K10TG8X  C2010 10 19.34875 02 45 36.27 +06 15 45.5          18.4 R EU025854
         K10TG8X  C2010 10 19.34971 02 45 35.97 +06 15 49.2          18.3 R EU025854
         K10TG8X  C2010 10 19.35069 02 45 35.79 +06 15 51.9          18.3 R EU025854
         K10TG8X SC2010 10 19.87638 02 43 49.91 +06 41 50.3          18.3 R EU025473
         K10TG8X SC2010 10 19.87847 02 43 49.45 +06 41 56.3          18.3 R EU025473
         K10TG8X KC2010 10 19.91990 02 43 40.72 +06 44 00.8          18.2 V EU025951
         K10TG8X KC2010 10 19.92448 02 43 39.68 +06 44 14.8          18.3 V EU025951
         K10TG8X KC2010 10 19.93135 02 43 38.21 +06 44 35.3          18.3 V EU025951
         K10TG8X  C2010 10 19.94728 02 43 35.00 +06 45 30.4          18.0 V EU025J75
         K10TG8X  C2010 10 19.95007 02 43 34.39 +06 45 38.8          18.1 V EU025J75
         K10TG8X  C2010 10 19.95288 02 43 33.78 +06 45 47.5          18.2 V EU025J75
         K10TG8X  C2010 10 20.16396 02 42 48.40 +06 57 18.1          17.0 R EU025844
         K10TG8X  C2010 10 20.16448 02 42 48.25 +06 57 18.5          17.3 R EU025844
         K10TG8X  C2010 10 20.16497 02 42 48.13 +06 57 20.7          17.6 R EU025844
         K10TG8X  C2010 10 20.16547 02 42 48.04 +06 57 23.2          17.3 R EU025844
         K10TG8X  C2010 10 20.16598 02 42 48.00 +06 57 25.3          17.3 R EU025844
         K10TG8X  C2010 10 20.16650 02 42 47.86 +06 57 26.1          17.6 R EU025844
         K10TG8X  C2010 10 20.16701 02 42 47.66 +06 57 28.4          17.3 R EU025844
         K10TG8X  C2010 10 20.16752 02 42 47.60 +06 57 30.7          16.9 R EU025844
         K10TG8X  C2010 10 20.16803 02 42 47.54 +06 57 30.4          17.5 R EU025844
         K10TG8X KC2010 10 20.31526002 42 15.12 +07 04 31.6          18.0 V EU025H21
         K10TG8X KC2010 10 20.31887702 42 14.29 +07 04 42.9          18.0 V EU025H21
         K10TG8X KC2010 10 20.32200 02 42 13.78 +07 04 53.3          18.5 R EU025H36
         K10TG8X KC2010 10 20.32329002 42 13.29 +07 04 56.7          18.0 V EU025H21
         K10TG8X KC2010 10 20.32436 02 42 13.24 +07 05 00.6          18.5 R EU025H36
         K10TG8X KC2010 10 20.32671 02 42 12.68 +07 05 08.4          18.3 R EU025H36
         K10TG8X KC2010 10 20.32907 02 42 12.16 +07 05 15.3          18.2 R EU025H36
         K10TG8X KC2010 10 20.33142 02 42 11.66 +07 05 22.6          18.6 R EU025H36
    
    Observer details:
    473 Remanzacco.  Observers L. Donato, V. Gonano, E. Guido, G. Sostero.  0.45-m
        f/4.4 Newtonian reflector + CCD.
    703 Catalina Sky Survey.  Observer A. D. Grauer.  Measurers J. D. Ahern,
        E. C. Beshore, A. Boattini, G. J. Garradd, A. R. Gibbs, A. D. Grauer,
        R. E. Hill, R. A. Kowalski, S. M. Larson, R. H. McNaught.  0.68-m Schmidt
        + CCD.
    844 Los Molinos.  Observers S. Bruzzone, R. Salvo, S. Roland, G. Tancredi,
        M. Martinez.  Measurer S. Bruzzone.  0.35-m reflector + CCD.
    854 Sabino Canyon Observatory, Tucson.  Observer J. E. McGaha.  0.36-m f/10.0
        Schmidt-Cassegrain + CCD.
    951 Highworth.  Observer J. W. Rock.  0.25-m f/6.3 Schmidt-Cassegrain + CCD.
    H10 Tzec Maun Observatory, Mayhill.  Observers L. Buzzi, S. Foglia.  0.36-m
        f/3.9 reflector + CCD.
    H21 Astronomical Research Observatory, Westfield.  Observer R. Holmes.
        Measurers S. Foglia, T. Vorobjov.  0.61-m f/4.0 astrograph + CCD.
    H26 Doc Greiner Research Observatory, Janesvillle.  Observer M. Mills.  0.4-m
        f/8 Schmidt-Cassegrain + CCD, 0.40-m f/8 Schmidt-Cassegrain + CCD.
    H36 Sandlot Observatory, Scranton.  Observer G. Hug.  0.56-m reflector + CCD.
    J75 OAM Observatory, La Sagra.  Observers S. Sanchez, J. Nomen, R. Stoss,
        J. Rodriguez, M. Hurtado, W. K. Y. Yeung.  0.40-m f/10 reflector + CCD,
        0.45-m f/2.8 reflector + CCD.
    
    Orbital elements:
    2010 TX168                                          PHA, Earth MOID = 0.0213 AU
    Epoch 2010 July 23.0 TT = JDT 2455400.5                 MPC
    M 266.87006              (2000.0)            P               Q
    n   0.54797517     Peri.  101.50838     -0.64769710     -0.72360062
    a   1.4789794      Node    33.04150     +0.40739110     -0.59346411
    e   0.5219273      Incl.   25.94123     +0.64383302     -0.35242372
    P   1.80           H   19.8           G   0.15           U   8
    Residuals in seconds of arc
    101011 703  1.2-  0.0     101019 H10  1.0+  0.6-    101020 844  0.4-  0.3+
    101011 703  0.3+  0.2-    101019 H10  1.3+  1.2-    101020 844  0.8+  0.8+
    101011 703  0.9+  0.1+    101019 854  1.1+  0.1-    101020 844  0.4+  0.1-
    101018 J75  0.0   0.6-    101019 854  0.3-  0.8+    101020 844  0.8-  0.7+
    101018 J75  0.1+  0.3+    101019 854  0.1+  0.7+    101020 844  0.0   1.4+
    101018 J75  0.3-  0.8-    101019 473  0.0   0.1+    101020 844  0.8+  0.5-
    101019 J75  0.0   0.1+    101019 473  0.1-  0.3-    101020 H21  0.3+  0.1-
    101019 J75  0.1+  0.1-    101019 951  0.4+  0.3+    101020 H21  0.2+  0.1-
    101019 J75  0.2-  0.0     101019 951  0.4-  0.3+    101020 H36  0.2-  0.0
    101019 H26  0.4-  0.8+    101019 951  0.2-  0.2-    101020 H21  0.3+  0.2-
    101019 H26  1.2-  0.8+    101019 J75  0.0   0.0     101020 H36  0.2-  0.1-
    101019 H26  0.5-  0.5+    101019 J75  0.0   0.2-    101020 H36  0.5-  0.3+
    101019 H26  0.2-  0.2+    101019 J75  0.1+  0.1-    101020 H36  0.3-  0.2-
    101019 H26  0.4-  0.0     101020 844  0.1-  0.1-    101020 H36  0.3+  0.3-
    101019 H26  0.3-  0.1-    101020 844  0.6-  1.4-
    101019 H10  0.6+  0.4-    101020 844  0.7-  0.7-
    
    Ephemeris:
    2010 TX168               a,e,i = 1.48, 0.52, 26                  q = 0.7071
    Date    TT    R. A. (2000) Decl.     Delta      r     Elong.  Phase     V
    2010 10 21    02 39.71   +07 41.7    0.255    1.244   165.4    11.7    18.0
    2010 10 31    01 35.70   +21 29.7    0.170    1.160   167.1    11.0    17.0
    2010 11 10    22 56.41   +40 58.5    0.140    1.073   123.0    50.7    17.6
    2010 11 20    19 49.75   +42 31.6    0.179    0.987    84.5    85.1    19.0
    2010 11 30    18 20.39   +35 48.3    0.250    0.904    63.8   101.9    20.3
    2010 12 10    17 37.20   +29 22.9    0.331    0.828    52.8   108.7    21.1
    2010 12 20    17 13.10   +22 52.2    0.416    0.765    47.2   109.3    21.4
    2010 12 30    17 01.42   +15 42.9    0.505    0.722    45.1   105.2    21.5
    2011 01 09    17 00.44   +08 02.4    0.595    0.707    45.4    97.7    21.4
    2011 01 19    17 08.60   +00 19.9    0.683    0.722    47.2    88.8    21.4
    2011 01 29    17 23.80   -06 54.6    0.764    0.765    50.0    80.2    21.4
    2011 02 08    17 43.69   -13 23.6    0.831    0.828    53.4    72.9    21.5
    2011 02 18    18 06.25   -19 04.5    0.885    0.905    57.4    67.0    21.7
    2011 02 28    18 30.05   -24 02.6    0.924    0.988    62.0    62.3    21.8
    2011 03 10    18 54.02   -28 27.4    0.949    1.074    67.1    58.4    21.9
    2011 03 20    19 17.34   -32 29.6    0.962    1.160    72.7    55.0    22.0
    2011 03 30    19 39.39   -36 19.6    0.965    1.245    78.7    51.9    22.1
    
    Sonia Keys                   (C) Copyright 2010 MPC           M.P.E.C. 2010-U25
    

    Read MPEC 2010-U24 Read MPEC 2010-U26


    MPEC number:

    Enter an MPEC number in one of the following forms:

    • 1997-B01 (the full form)
    • J97B01 (the packed version of the full form)
    • B01 (the abbreviated form)